Miscellaneous Local Product
Issued by NWS North Platte, NE

Home | Current Version | Previous Version | Text Only | Print | Product List | Glossary On
Versions: 1 2 3 4 5 6 7 8 9 10 11 12 13 14 15 16 17 18 19 20 21 22 23 24 25 26 27 28 29 30 31 32 33 34 35 36 37 38 39 40 41 42 43 44 45 46 47 48 49 50
000
AXUS43 KLBF 161310
MISLBF


WESTERN AND NORTH CENTRAL NEBRASKA HOURLY WEATHER ROUNDUP
NATIONAL WEATHER SERVICE NORTH PLATTE NE
800 AM CDT TUE SEP 16 2014

***STATIONS NOT REPORTING VARIABLES SUCH AS SKY/WEATHER OR
PRESSURE ARE PROVIDED BY THE NEBRASKA DEPARTMENT OF
ROADS...RAWS...AND APRS NETWORKS...AND ARE NOT UNDER
NATIONAL WEATHER SERVICE QUALITY CONTROL***

...OBSERVATIONS IN AND NEAR THE EASTERN PANHANDLE OF NEBRASKA...

CITY           SKY/WX    TMP DP  RH WIND       PRES   REMARKS
PINE RIDGE     CLEAR     50  47  89 SW3       30.05S
CHADRON        PTCLDY    45  44  97 W7        30.06R FOG
ALLIANCE       PTCLDY    47  46  97 SW6       30.08R FOG
SIDNEY         PTCLDY    50  48  93 S12       30.11F FOG
WHITECLAY        N/A     46  43  87 SE7         N/A
RUSHVILLE        N/A     44  43  95 W6          N/A
CRESCENT LAKE    N/A     53  51  92 S6G17       N/A
LISCO            N/A     55  50  82 E7          N/A
BIG SPRINGS      N/A     53  51  92 SW6         N/A
$$

...OBSERVATIONS IN NORTH CENTRAL NEBRASKA...

CITY           SKY/WX    TMP DP  RH WIND       PRES   REMARKS
VALENTINE      CLEAR     50  44  80 S8        30.08S
THEDFORD       CLEAR     50  44  78 S12G20    30.14R
AINSWORTH      CLEAR     47  42  82 S13       30.10S
O`NEILL        CLEAR     47  45  91 S10       30.16F
ORD            CLEAR     46  43  89 SE7       30.17F
BROKEN BOW     CLEAR     48  44  86 S10       30.16S
SPRINGVIEW       N/A     46  42  86 E3          N/A
ROSE             N/A     46  45  96 E10         N/A
NEWPORT          N/A     47  43  88 S7          N/A
COMSTOCK         N/A     47  45  93 S14         N/A
CHAMBERS         N/A     47  44  91 S6          N/A
$$

...OBSERVATIONS IN SOUTHWEST NEBRASKA AND FAR NORTHEAST COLORADO...

CITY           SKY/WX    TMP DP  RH WIND       PRES   REMARKS
WRAY           FAIR     N/A N/A N/A SE6       30.14F
HOLYOKE        FAIR      54  50  87 S7        30.14R
IMPERIAL       MOCLDY    52  50  93 E7        30.15F
OGALLALA       PTCLDY    51  50  95 S5        30.14F
NORTH PLATTE   PTCLDY    51  45  79 VRB6      30.15S
MCCOOK         CLOUDY    51  47  86 SE9       30.19F
LEXINGTON      PTCLDY    51  48  90 S15       30.17F
PAXTON           N/A     50  46  85 SE6         N/A
SUTHERLAND       N/A     47  43  87 W3          N/A
BRADY            N/A     50  45  83 CALM        N/A
GOTHENBURG       N/A     49  42  77 SE7         N/A
CALLAWAY         N/A     45  44  95 S17         N/A
$$

...SOME WEATHER OBSERVATIONS FROM AROUND THE REGION...

CITY           SKY/WX    TMP DP  RH WIND       PRES   REMARKS
DENVER         PTCLDY    58  44  60 SW16      30.19R
LARAMIE        CLEAR     44  36  73 W9        30.30R
CHEYENNE       PTCLDY    59  37  44 W16       30.22R
SCOTTSBLUFF    CLEAR     47  47 100 N5        30.09R FOG
RAPID CITY     CLEAR     42  39  89 NW3       30.03F
PIERRE         CLEAR     47  41  80 SE10      30.03F
WINNER         FAIR      52  42  69 S21       30.05F
SIOUX FALLS    CLEAR     45  42  89 S7        30.19S
OMAHA          FOG       46  44  93 S5        30.25F VSB 1/4
GRAND ISLAND   CLEAR     47  43  86 S7        30.23R
KANSAS CITY    SUNNY     50  48  93 NE7       30.25S
WICHITA        CLOUDY    60  51  72 NE8       30.21S
HAYS           CLOUDY    52  46  82 SE8       30.23S
LIBERAL        CLOUDY    61  54  77 SE7       30.23S
GOODLAND       CLOUDY    58  53  84 SW12      30.18S
$$



USA.gov is the U.S. government's official web portal to all federal, state and local government web resources and services.